Temp
11 11 11 10 10 10 10 10 10 10 10 10 10 10 10 10 10 10 10 10 10 10 10 10 11 11 12 12 12 13 13 13 13 13 13 13 13 14 14 14 14 14 13 13 13 13 13 12 12 11 11 11 10 10 10 9 9 9 8 8 8 8 7 7 7 7 7 7 7
11 11 10 10 10 10 10 10 10 10 10 10 10 10 10 10 9 9 9 9 9 10 10 10 10 11 11 12 12 12 12 13 13 13 13 13 13 13 13 13 14 14 13 13 13 13 13 12 12 11 11 11 10 10 9 9 9 9 8 8 8 7 7 7 7 7 7 6 6
11 11 10 10 10 10 10 10 10 10 10 10 10 10 9 9 9 9 9 9 9 9 10 10 10 10 11 11 12 12 12 12 12 12 12 13 13 13 13 13 13 13 13 13 13 13 12 12 11 11 11 11 10 10 9 9 9 9 8 8 7 7 7 7 7 7 7 6 6
11 10 10 10 10 10 10 10 10 10 10 10 10 9 9 9 9 9 9 9 9 9 9 10 10 10 11 11 11 12 12 12 12 12 12 12 12 13 13 13 13 13 13 13 13 13 12 12 11 11 11 10 10 9 9 9 9 9 8 8 7 7 7 7 7 7 6 6 6
11 10 10 10 10 10 10 10 9 9 9 9 9 9 9 9 9 9 9 9 9 9 9 9 10 10 10 11 11 11 12 11 11 11 11 12 12 12 12 13 13 13 13 13 13 12 12 11 11 11 10 10 10 9 9 9 9 9 8 8 7 7 7 7 6 6 6 6 6
11 10 10 10 10 10 10 9 9 9 9 9 9 9 9 9 9 9 9 9 9 9 9 9 9 10 10 10 11 11 11 11 11 11 11 11 12 12 12 12 12 13 13 13 12 12 12 11 11 10 10 10 10 9 9 8 8 8 8 7 7 7 7 6 6 6 6 6 6
11 10 10 10 10 10 9 9 9 9 9 9 9 9 9 9 9 9 9 9 9 9 9 9 9 9 10 10 10 11 11 11 11 11 11 11 11 11 12 12 12 12 12 12 12 12 12 11 11 10 10 10 9 9 9 8 8 8 8 7 7 7 7 6 6 6 6 6 6
11 10 10 10 10 10 9 9 9 9 9 9 9 9 9 9 9 9 8 8 8 8 8 8 9 9 9 10 10 10 11 11 11 11 11 11 11 11 11 12 12 12 12 12 12 12 11 11 11 10 10 9 9 9 9 8 8 8 8 7 7 7 7 7 7 6 6 6 6
11 11 10 10 10 10 9 9 9 9 9 9 9 9 9 9 9 8 8 8 8 8 8 8 8 9 9 9 10 10 10 11 11 11 11 11 11 11 11 11 12 12 12 12 12 12 11 11 11 10 10 9 9 9 9 9 8 8 7 7 7 6 6 7 7 7 7 6 6
11 11 10 10 10 10 9 9 9 9 9 9 9 9 9 9 8 8 8 8 8 8 8 8 8 8 9 9 9 10 10 10 11 11 11 11 11 11 11 11 12 12 12 12 12 12 11 11 11 10 10 10 9 9 9 9 8 8 7 7 7 6 6 6 7 7 7 6 6
11 11 10 10 10 10 9 9 9 9 9 9 9 9 9 8 8 8 8 8 8 8 8 8 8 8 8 9 9 9 10 10 10 11 11 11 11 11 11 12 12 12 12 12 12 12 11 11 11 10 10 9 9 9 9 9 8 8 7 7 7 6 6 6 6 6 6 6 6
11 11 10 10 10 10 9 9 9 9 8 8 8 9 8 8 8 8 8 8 8 8 8 8 8 8 8 8 9 9 9 10 10 10 11 11 11 11 11 11 12 12 12 12 12 12 11 11 11 10 10 10 9 9 9 9 8 8 8 7 7 6 6 6 6 6 6 6 6
11 11 10 10 10 9 9 9 9 8 8 8 8 8 8 8 8 8 8 8 8 8 8 7 8 8 8 8 8 9 9 9 10 10 10 10 10 11 11 11 11 12 12 12 12 12 12 11 11 11 10 10 9 9 9 9 8 8 8 7 7 7 6 6 6 6 6 6 6
11 10 10 10 10 9 9 9 9 8 8 8 8 8 8 8 8 8 8 8 8 8 8 7 7 7 8 8 8 8 9 9 9 10 10 10 10 10 11 11 11 11 12 12 12 12 11 11 11 11 10 10 9 9 9 9 8 8 8 7 7 7 7 6 6 6 6 6 6
11 10 10 10 9 9 9 9 8 8 8 8 8 8 8 8 8 8 8 8 8 8 7 7 7 7 7 7 8 8 8 9 9 10 10 10 10 10 10 11 11 11 11 11 11 11 11 11 11 11 10 10 9 9 9 9 8 8 8 7 7 7 7 7 6 6 6 6 6
11 10 10 9 9 9 9 8 8 8 8 8 8 8 8 8 8 8 8 7 7 7 7 7 7 7 7 7 7 8 8 8 9 9 9 10 10 10 10 11 11 11 11 11 11 11 11 11 11 10 10 10 9 9 8 8 8 8 8 7 7 7 7 6 6 6 6 6 6
11 11 10 10 9 9 9 8 8 8 8 8 8 8 8 8 8 7 7 7 7 7 7 7 7 7 7 7 7 7 8 8 8 9 9 9 10 10 10 11 11 11 11 11 11 11 11 11 11 10 10 10 9 9 8 8 8 8 7 7 7 7 6 6 6 6 6 6 6
11 11 10 10 9 9 9 8 8 8 8 8 8 8 8 7 7 7 7 7 7 7 7 7 7 6 6 7 7 7 7 8 8 8 9 9 9 10 10 10 11 11 11 11 11 11 11 11 10 10 10 9 9 8 8 8 8 7 7 7 7 6 6 6 6 6 6 6 6
11 10 10 10 9 9 9 8 8 8 8 8 8 8 7 7 7 7 7 7 7 7 7 7 6 6 6 6 7 7 7 7 8 8 8 9 9 10 10 10 11 11 11 11 11 11 11 11 10 10 10 9 9 8 8 8 7 7 7 7 6 6 6 6 6 6 6 6 6
10 10 10 10 10 9 9 9 8 8 8 8 8 7 7 7 7 7 7 7 7 7 7 6 6 6 6 6 6 7 7 7 8 8 8 9 9 9 10 10 11 11 11 11 11 11 10 10 10 10 9 9 9 8 8 7 7 7 7 7 6 6 6 6 6 6 6 6 5
10 10 10 10 9 9 9 9 8 8 8 8 7 7 7 7 7 7 7 7 6 6 6 6 6 6 6 6 6 7 7 7 7 8 8 8 9 9 10 10 10 11 11 11 11 10 10 10 10 10 9 9 8 8 8 7 7 7 7 6 6 6 6 6 6 6 6 5 5
9 10 10 10 9 9 9 9 9 8 8 8 7 7 7 7 7 7 7 7 6 6 6 6 6 6 6 6 6 6 7 7 7 8 8 8 9 9 10 10 10 10 10 10 10 10 10 10 10 9 9 9 8 8 7 7 7 7 6 6 6 6 6 6 6 6 5 5 5
9 9 10 10 9 9 9 9 8 8 8 8 7 7 7 7 7 7 7 6 6 6 6 6 6 6 6 6 6 6 7 7 7 8 8 8 9 9 9 10 10 10 10 10 10 10 10 10 9 9 9 8 8 8 7 7 7 7 6 6 6 6 6 6 6 5 5 5 5
8 8 9 9 9 9 9 9 8 8 8 8 7 7 7 7 7 7 7 6 6 6 6 6 6 6 5 6 6 6 6 7 7 7 8 8 9 9 9 10 10 10 10 10 10 10 10 10 9 9 9 8 8 8 7 7 7 6 6 6 6 6 6 6 5 5 5 5 5
7 8 8 9 9 9 9 8 8 8 8 8 7 7 7 7 7 7 7 6 6 6 6 6 6 5 5 5 5 6 6 7 7 7 8 8 8 9 9 9 10 10 10 10 10 10 10 10 9 9 9 8 8 8 7 7 7 6 6 6 6 5 5 5 5 5 5 5 5
6 7 7 8 9 9 9 8 8 8 8 7 7 7 7 7 7 7 7 6 6 6 6 6 6 5 5 5 5 5 6 6 7 7 8 8 9 9 9 9 9 9 9 9 10 10 10 9 9 9 9 8 8 8 7 7 6 6 6 6 6 5 5 5 5 5 5 5 5
6 6 6 7 8 8 9 9 8 8 7 7 7 7 7 7 7 7 7 6 6 6 6 6 6 5 5 5 5 5 5 6 6 7 8 8 9 9 9 9 9 9 9 9 10 10 9 9 9 9 9 8 8 8 7 7 6 6 6 6 5 5 5 5 5 5 4 4 4
5 6 6 6 7 8 8 8 8 8 7 7 7 7 7 7 7 7 7 6 6 6 6 6 6 5 5 5 5 5 5 6 6 7 7 8 9 9 9 9 9 9 9 10 10 10 9 9 9 9 8 8 8 7 7 7 6 6 6 6 5 5 5 5 5 4 4 4 4
5 6 6 6 6 7 7 8 8 8 7 7 7 7 7 7 7 7 7 6 6 6 6 6 6 5 5 5 5 5 5 5 6 6 7 7 8 9 9 9 9 9 10 10 10 10 9 9 9 8 8 8 8 7 7 7 6 6 6 5 5 5 5 5 5 4 4 4 3
5 5 6 6 6 6 7 7 8 8 7 7 7 6 6 6 7 7 6 6 6 6 6 6 6 5 5 5 5 5 5 5 5 6 6 7 8 8 9 9 9 9 10 10 10 9 9 9 9 8 8 8 7 7 7 6 6 6 5 5 5 5 5 5 4 4 4 3 3
5 5 5 6 6 6 6 6 7 7 7 7 7 6 6 6 6 6 6 6 6 6 6 6 6 5 5 5 5 5 5 5 5 5 6 7 7 8 8 9 9 9 9 10 9 9 9 9 8 8 8 7 7 7 6 6 6 6 5 5 5 5 5 4 4 4 3 3 3
5 5 5 5 6 6 6 6 6 6 7 7 7 6 6 6 6 6 6 6 6 6 6 6 5 5 5 5 5 5 4 5 5 5 6 6 7 8 8 8 9 9 9 9 9 9 9 8 8 8 8 7 7 7 6 6 6 5 5 5 5 4 4 4 4 4 3 3 3
5 5 5 5 5 5 6 6 6 6 6 6 6 6 6 6 6 6 6 6 6 6 6 6 5 5 5 5 5 5 5 4 5 5 6 6 7 8 8 8 8 9 9 9 9 9 8 8 8 8 7 7 7 6 6 6 5 5 5 4 4 4 4 4 4 3 3 3 3
5 5 5 5 5 5 5 5 5 5 5 5 6 6 6 6 6 6 6 6 6 6 6 6 5 5 5 5 5 5 5 5 5 5 5 6 7 7 8 8 8 9 9 9 9 8 8 8 7 7 7 7 7 6 6 5 5 5 5 4 4 4 4 4 3 3 3 3 3
6 5 5 5 5 5 5 5 5 5 5 5 5 5 6 6 6 6 6 6 6 6 6 6 5 5 5 5 5 5 5 5 5 5 5 6 7 7 8 8 8 9 9 9 8 8 8 7 7 7 7 7 6 6 5 5 5 4 4 4 4 4 3 3 3 3 3 3 3
6 6 5 5 5 5 5 5 5 5 5 5 5 5 5 6 6 6 6 6 6 6 6 6 5 5 5 5 5 5 5 5 5 5 5 6 7 7 7 8 8 8 9 8 8 8 7 7 7 7 7 6 6 6 5 5 4 4 4 4 3 3 3 3 3 3 3 3 3
6 6 6 5 5 5 5 5 5 5 4 4 5 5 5 5 6 6 6 6 6 6 6 6 6 5 5 5 5 5 5 5 5 5 5 6 7 7 7 7 8 8 8 8 8 7 7 7 7 7 6 6 6 5 5 4 4 3 3 3 3 3 3 3 3 3 3 3 3
6 6 6 6 5 5 5 5 5 5 4 4 4 4 4 5 5 6 6 6 6 6 6 6 5 5 5 5 5 5 5 5 5 5 5 6 7 7 7 7 8 8 8 8 8 7 7 7 7 6 6 6 5 5 4 4 3 3 3 3 3 3 3 3 3 3 3 3 3
6 5 5 5 5 5 5 5 5 5 4 4 4 4 4 4 5 5 6 5 5 5 5 5 5 5 5 5 5 5 5 5 5 5 6 6 7 7 7 7 8 8 8 8 7 7 7 7 7 6 6 5 5 4 4 3 3 3 3 3 3 3 3 3 3 3 3 3 2
5 5 5 5 5 5 6 5 5 5 4 4 4 4 4 4 4 5 5 5 5 5 5 5 5 5 5 5 5 5 5 5 5 5 6 6 6 7 7 7 8 8 8 8 7 7 7 7 7 6 6 5 4 4 3 3 3 3 3 3 3 3 3 3 3 3 3 2 2
5 5 5 5 5 5 5 6 5 5 5 4 4 4 3 3 4 4 5 5 5 5 5 5 5 5 5 5 5 5 5 5 5 5 6 6 6 7 7 7 8 8 8 7 7 7 7 7 6 6 6 5 4 4 3 3 3 3 3 3 3 3 3 3 3 3 3 2 2
Height
1446 1446 1447 1447 1448 1448 1449 1449 1450 1451 1452 1452 1451 1450 1450 1451 1452 1452 1452 1452 1452 1453 1454 1455 1456 1457 1459 1460 1462 1464 1465 1466 1468 1469 1471 1473 1475 1477 1479 1480 1482 1483 1484 1485 1486 1488 1489 1489 1490 1491 1492 1493 1494 1494 1495 1496 1497 1498 1498 1499 1499 1500 1501 1501 1502 1502 1503 1503 1503
1444 1444 1445 1445 1446 1446 1447 1447 1448 1449 1449 1449 1449 1449 1449 1449 1449 1450 1450 1450 1450 1451 1452 1453 1454 1455 1457 1459 1460 1462 1464 1465 1466 1468 1469 1471 1473 1475 1476 1478 1479 1481 1482 1483 1484 1485 1487 1488 1489 1489 1490 1491 1492 1493 1494 1494 1495 1496 1497 1498 1498 1499 1499 1500 1500 1501 1501 1502 1502
1442 1442 1443 1444 1444 1444 1444 1445 1445 1446 1447 1447 1448 1447 1447 1447 1448 1448 1449 1449 1449 1450 1450 1451 1452 1453 1455 1457 1459 1460 1462 1463 1464 1466 1467 1469 1471 1473 1474 1475 1477 1479 1480 1481 1482 1484 1485 1486 1487 1488 1489 1489 1490 1491 1492 1493 1494 1495 1496 1496 1497 1497 1498 1499 1499 1499 1500 1500 1501
1440 1440 1441 1441 1442 1442 1442 1443 1443 1444 1444 1445 1446 1445 1445 1445 1446 1446 1447 1447 1448 1448 1449 1449 1450 1451 1453 1454 1456 1458 1460 1461 1463 1464 1465 1467 1469 1470 1472 1473 1475 1477 1478 1479 1480 1482 1483 1484 1485 1486 1487 1488 1489 1489 1490 1491 1492 1493 1494 1495 1495 1496 1496 1497 1498 1498 1499 1499 1499
1439 1439 1439 1439 1439 1440 1440 1441 1442 1442 1443 1443 1444 1444 1444 1443 1444 1445 1445 1446 1446 1446 1446 1447 1448 1449 1450 1452 1454 1456 1458 1459 1461 1462 1464 1465 1467 1468 1469 1471 1473 1474 1476 1477 1479 1480 1481 1482 1483 1484 1485 1486 1487 1488 1489 1489 1490 1492 1493 1493 1494 1494 1495 1496 1496 1497 1497 1498 1498
1437 1437 1437 1437 1437 1438 1439 1439 1440 1440 1441 1441 1442 1442 1442 1442 1442 1443 1444 1444 1444 1444 1445 1446 1446 1447 1449 1451 1453 1454 1456 1457 1459 1460 1461 1463 1464 1466 1467 1469 1470 1472 1474 1475 1477 1478 1479 1480 1482 1482 1483 1484 1485 1486 1487 1488 1489 1490 1491 1492 1492 1493 1494 1494 1495 1495 1496 1496 1497
1435 1435 1435 1435 1435 1436 1436 1437 1438 1439 1439 1439 1439 1439 1439 1440 1440 1441 1441 1442 1442 1443 1444 1444 1444 1445 1447 1449 1450 1452 1454 1455 1456 1458 1459 1461 1462 1464 1465 1467 1468 1470 1471 1473 1474 1476 1477 1479 1480 1481 1481 1483 1484 1485 1486 1486 1487 1488 1489 1490 1491 1491 1492 1493 1493 1494 1494 1495 1495
1433 1433 1433 1433 1434 1434 1434 1435 1436 1437 1437 1437 1437 1437 1438 1438 1439 1439 1440 1441 1441 1441 1442 1442 1442 1443 1444 1446 1448 1449 1451 1452 1454 1456 1457 1459 1460 1462 1463 1464 1466 1468 1469 1471 1473 1474 1475 1477 1478 1479 1479 1481 1482 1483 1484 1485 1486 1486 1487 1488 1489 1490 1490 1491 1492 1493 1493 1494 1494
1431 1431 1431 1431 1432 1432 1432 1433 1434 1434 1435 1435 1435 1436 1436 1437 1437 1437 1438 1439 1439 1439 1439 1439 1440 1441 1442 1444 1446 1447 1449 1450 1452 1453 1455 1456 1458 1459 1461 1462 1464 1465 1467 1469 1470 1472 1474 1475 1476 1477 1478 1479 1480 1481 1482 1483 1484 1485 1486 1487 1488 1488 1489 1489 1490 1491 1492 1492 1493
1429 1429 1429 1429 1429 1430 1430 1431 1431 1432 1433 1433 1434 1434 1434 1435 1435 1435 1436 1437 1437 1438 1438 1438 1438 1439 1440 1442 1444 1445 1446 1448 1449 1451 1453 1454 1456 1457 1458 1460 1462 1463 1465 1467 1469 1470 1472 1473 1474 1475 1476 1477 1478 1479 1480 1481 1482 1483 1484 1485 1486 1487 1487 1488 1489 1490 1490 1491 1491
1428 1428 1428 1428 1428 1428 1429 1429 1429 1430 1431 1431 1432 1432 1433 1433 1433 1434 1434 1435 1436 1436 1436 1435 1436 1437 1438 1440 1442 1443 1444 1446 1448 1449 1451 1452 1454 1455 1456 1458 1459 1461 1463 1464 1466 1468 1469 1471 1472 1473 1474 1475 1477 1478 1479 1479 1481 1482 1483 1484 1484 1485 1486 1486 1487 1488 1489 1489 1489
1426 1426 1426 1426 1426 1426 1427 1427 1428 1428 1429 1429 1430 1430 1431 1431 1432 1432 1433 1434 1434 1434 1434 1434 1434 1435 1436 1438 1439 1441 1442 1444 1445 1447 1449 1450 1452 1453 1454 1456 1458 1459 1461 1463 1464 1466 1467 1469 1470 1471 1473 1474 1475 1476 1477 1478 1479 1480 1481 1482 1483 1484 1484 1485 1486 1486 1487 1488 1488
1425 1424 1424 1424 1424 1424 1425 1425 1426 1426 1426 1427 1428 1429 1429 1429 1430 1430 1431 1431 1432 1433 1433 1433 1432 1433 1434 1436 1437 1439 1440 1441 1443 1445 1447 1448 1449 1451 1453 1454 1456 1458 1459 1461 1463 1464 1465 1467 1468 1470 1471 1472 1473 1474 1475 1476 1477 1478 1479 1480 1481 1482 1483 1484 1484 1485 1486 1486 1486
1424 1424 1423 1423 1423 1423 1423 1423 1424 1424 1424 1425 1425 1426 1427 1428 1428 1428 1429 1429 1430 1431 1432 1431 1431 1431 1432 1434 1435 1436 1438 1439 1441 1443 1444 1446 1448 1449 1450 1452 1454 1456 1458 1459 1461 1462 1464 1465 1467 1468 1469 1470 1471 1472 1473 1474 1475 1477 1478 1479 1480 1481 1481 1482 1483 1484 1484 1485 1485
1424 1423 1422 1422 1421 1421 1421 1421 1422 1422 1422 1423 1423 1424 1425 1425 1426 1426 1427 1427 1428 1429 1430 1429 1429 1429 1430 1432 1433 1434 1436 1438 1439 1441 1443 1444 1445 1447 1449 1450 1452 1454 1455 1457 1459 1460 1462 1464 1465 1466 1468 1469 1470 1471 1471 1473 1474 1475 1476 1477 1478 1479 1480 1481 1482 1482 1483 1483 1484
1423 1422 1421 1421 1420 1420 1420 1420 1420 1420 1421 1421 1421 1422 1423 1423 1424 1424 1424 1425 1426 1427 1428 1428 1427 1428 1429 1430 1431 1432 1434 1435 1437 1439 1440 1442 1443 1445 1446 1448 1450 1452 1454 1455 1457 1459 1460 1462 1464 1465 1466 1467 1468 1469 1470 1471 1472 1474 1475 1476 1477 1478 1479 1479 1480 1481 1481 1482 1482
1422 1421 1421 1420 1419 1419 1419 1418 1418 1419 1419 1419 1420 1420 1421 1421 1422 1422 1423 1423 1424 1425 1425 1425 1425 1426 1427 1428 1429 1430 1432 1433 1435 1437 1438 1440 1441 1442 1444 1446 1448 1450 1452 1454 1455 1457 1459 1460 1462 1463 1464 1466 1467 1468 1469 1470 1471 1472 1473 1474 1475 1476 1477 1478 1479 1479 1480 1480 1481
1421 1420 1420 1419 1419 1418 1418 1417 1417 1417 1417 1418 1418 1419 1419 1419 1420 1420 1420 1421 1422 1423 1423 1424 1424 1424 1425 1426 1427 1428 1429 1431 1433 1434 1436 1437 1439 1440 1442 1444 1446 1448 1450 1452 1454 1455 1457 1459 1460 1461 1463 1464 1465 1466 1467 1468 1469 1471 1472 1473 1474 1475 1475 1476 1477 1478 1478 1479 1479
1419 1419 1419 1418 1417 1417 1417 1416 1416 1416 1416 1416 1417 1417 1417 1418 1418 1419 1419 1419 1420 1420 1421 1422 1422 1422 1423 1424 1425 1426 1427 1429 1431 1432 1434 1435 1437 1439 1440 1443 1444 1447 1449 1450 1452 1454 1455 1457 1459 1460 1461 1462 1464 1465 1466 1467 1468 1469 1470 1471 1472 1473 1474 1475 1475 1476 1477 1477 1478
1418 1418 1417 1417 1416 1416 1415 1415 1415 1415 1414 1415 1415 1415 1416 1416 1417 1417 1417 1417 1418 1419 1419 1420 1420 1420 1421 1422 1423 1424 1425 1427 1429 1431 1432 1434 1435 1437 1439 1441 1443 1445 1447 1449 1451 1452 1454 1455 1457 1458 1459 1461 1462 1463 1464 1465 1467 1468 1469 1470 1471 1472 1472 1473 1474 1475 1475 1476 1476
1417 1416 1416 1415 1414 1414 1414 1414 1414 1414 1414 1414 1414 1414 1414 1414 1415 1415 1416 1416 1416 1417 1418 1418 1418 1419 1419 1420 1421 1422 1423 1425 1427 1429 1430 1432 1433 1435 1437 1439 1441 1443 1445 1447 1449 1451 1452 1454 1455 1456 1458 1459 1460 1462 1463 1464 1465 1466 1467 1468 1469 1470 1471 1472 1473 1473 1474 1474 1475
1416 1415 1414 1414 1413 1413 1412 1412 1412 1412 1412 1412 1412 1412 1413 1413 1414 1414 1414 1414 1414 1415 1416 1416 1417 1417 1417 1418 1419 1420 1421 1423 1425 1427 1428 1430 1431 1434 1436 1438 1440 1442 1444 1445 1447 1449 1450 1452 1454 1455 1456 1458 1459 1460 1461 1463 1464 1465 1466 1467 1468 1469 1469 1470 1471 1472 1472 1473 1473
1414 1414 1413 1412 1411 1411 1410 1410 1411 1411 1411 1411 1411 1411 1411 1412 1412 1412 1413 1413 1413 1413 1414 1415 1415 1416 1416 1416 1417 1418 1420 1421 1423 1425 1426 1428 1430 1432 1434 1436 1438 1440 1442 1443 1445 1447 1449 1450 1452 1453 1455 1456 1458 1459 1460 1461 1462 1463 1464 1465 1466 1467 1468 1469 1470 1470 1471 1471 1472
1413 1412 1412 1411 1410 1409 1409 1409 1409 1409 1409 1409 1409 1409 1410 1410 1410 1411 1411 1411 1411 1412 1412 1413 1414 1414 1415 1415 1416 1417 1418 1419 1421 1423 1424 1426 1428 1430 1432 1434 1436 1438 1440 1442 1443 1445 1447 1449 1450 1452 1453 1455 1456 1457 1459 1460 1461 1462 1463 1464 1465 1466 1467 1467 1468 1469 1469 1470 1470
1411 1410 1410 1409 1408 1408 1407 1407 1406 1407 1407 1407 1407 1408 1408 1409 1409 1409 1410 1410 1410 1410 1411 1412 1413 1413 1414 1414 1414 1415 1416 1418 1419 1421 1422 1424 1426 1428 1430 1432 1434 1436 1438 1440 1442 1444 1445 1447 1449 1450 1452 1453 1454 1456 1457 1458 1459 1460 1462 1463 1464 1464 1465 1466 1467 1467 1468 1468 1469
1408 1408 1407 1407 1407 1406 1405 1404 1404 1404 1404 1405 1405 1406 1406 1407 1407 1408 1408 1408 1409 1409 1409 1410 1411 1412 1412 1412 1413 1414 1414 1416 1417 1419 1420 1422 1424 1426 1428 1430 1432 1434 1436 1438 1440 1442 1444 1446 1447 1449 1450 1452 1453 1454 1456 1457 1458 1459 1460 1461 1462 1463 1464 1464 1465 1466 1466 1467 1467
1406 1405 1405 1404 1404 1404 1404 1403 1403 1402 1402 1403 1403 1404 1404 1405 1406 1406 1406 1407 1407 1407 1408 1409 1410 1410 1411 1411 1411 1412 1413 1414 1415 1417 1419 1420 1422 1424 1426 1428 1430 1432 1434 1436 1438 1440 1443 1444 1446 1448 1449 1450 1452 1453 1454 1455 1457 1458 1459 1460 1461 1462 1463 1463 1464 1464 1465 1465 1465
1403 1403 1402 1402 1402 1402 1402 1402 1401 1401 1400 1400 1401 1401 1402 1403 1404 1404 1405 1405 1405 1406 1406 1407 1408 1409 1409 1409 1409 1410 1411 1412 1414 1415 1417 1418 1420 1422 1424 1426 1428 1430 1432 1434 1437 1439 1441 1443 1445 1446 1448 1449 1450 1452 1453 1454 1455 1456 1458 1459 1459 1460 1461 1462 1463 1463 1464 1464 1464
1401 1400 1399 1399 1399 1399 1399 1400 1399 1399 1399 1399 1399 1399 1400 1401 1402 1402 1403 1404 1404 1404 1404 1405 1406 1407 1407 1407 1408 1409 1409 1411 1412 1413 1415 1417 1419 1421 1423 1425 1427 1429 1431 1433 1435 1438 1440 1442 1444 1445 1446 1448 1449 1450 1452 1453 1454 1455 1456 1457 1458 1459 1460 1460 1461 1462 1462 1463 1463
1399 1398 1397 1397 1396 1396 1397 1397 1398 1398 1397 1397 1397 1397 1398 1399 1399 1400 1401 1401 1402 1402 1403 1403 1404 1405 1405 1405 1406 1407 1408 1409 1410 1412 1413 1415 1417 1419 1421 1423 1425 1427 1429 1432 1434 1437 1439 1440 1442 1444 1445 1446 1448 1449 1450 1451 1453 1454 1455 1456 1457 1458 1459 1459 1460 1460 1461 1462 1462
1398 1396 1395 1394 1394 1394 1394 1394 1395 1396 1396 1396 1395 1395 1396 1396 1397 1398 1399 1399 1400 1401 1401 1402 1402 1403 1403 1404 1405 1406 1407 1408 1409 1410 1411 1413 1415 1417 1420 1422 1424 1426 1428 1430 1433 1435 1437 1439 1441 1442 1444 1445 1447 1448 1449 1450 1451 1452 1454 1454 1455 1456 1457 1458 1459 1459 1460 1461 1461
1396 1394 1393 1392 1392 1391 1391 1392 1392 1393 1394 1394 1394 1394 1394 1394 1395 1396 1397 1398 1399 1399 1400 1400 1400 1401 1401 1402 1403 1404 1405 1406 1407 1408 1410 1412 1414 1416 1419 1421 1422 1424 1426 1429 1432 1434 1436 1438 1439 1441 1442 1444 1445 1447 1448 1449 1450 1451 1452 1453 1454 1455 1456 1457 1457 1458 1459 1459 1460
1394 1393 1391 1390 1389 1389 1389 1389 1389 1390 1391 1391 1392 1392 1392 1393 1393 1394 1395 1396 1397 1398 1398 1398 1399 1399 1399 1400 1401 1402 1404 1405 1406 1407 1409 1411 1413 1415 1417 1419 1421 1423 1425 1428 1431 1433 1434 1436 1438 1439 1441 1443 1444 1445 1447 1448 1449 1450 1451 1452 1453 1454 1454 1455 1456 1457 1457 1458 1459
1392 1391 1389 1388 1387 1386 1386 1386 1387 1387 1388 1388 1389 1390 1390 1391 1391 1392 1393 1394 1395 1396 1396 1397 1397 1397 1398 1398 1399 1400 1402 1404 1405 1406 1408 1410 1412 1414 1416 1418 1419 1421 1424 1427 1429 1431 1433 1435 1437 1438 1440 1441 1443 1444 1445 1446 1448 1449 1450 1451 1452 1453 1453 1454 1455 1455 1456 1456 1457
1389 1389 1387 1386 1385 1384 1384 1384 1384 1384 1384 1385 1385 1387 1388 1389 1389 1390 1391 1392 1393 1394 1395 1395 1396 1396 1396 1397 1398 1399 1400 1402 1404 1405 1407 1409 1411 1413 1415 1416 1418 1420 1423 1426 1428 1430 1432 1434 1435 1437 1439 1440 1441 1443 1444 1445 1446 1448 1449 1450 1451 1451 1452 1453 1453 1454 1454 1455 1455
1387 1386 1385 1384 1383 1382 1382 1381 1381 1381 1381 1381 1382 1384 1385 1387 1388 1388 1389 1390 1392 1393 1394 1394 1394 1394 1395 1395 1396 1398 1399 1401 1402 1404 1405 1407 1409 1411 1413 1415 1416 1419 1422 1425 1427 1429 1430 1432 1434 1436 1437 1439 1440 1441 1443 1444 1445 1447 1448 1449 1450 1450 1451 1451 1452 1452 1453 1453 1454
1385 1384 1383 1382 1381 1380 1379 1379 1379 1378 1378 1378 1379 1380 1383 1385 1386 1387 1388 1389 1390 1391 1392 1392 1393 1392 1393 1393 1394 1395 1397 1399 1400 1402 1404 1406 1408 1410 1412 1414 1415 1418 1421 1424 1425 1427 1429 1431 1433 1434 1436 1437 1439 1440 1442 1443 1444 1446 1447 1448 1449 1449 1450 1450 1451 1451 1451 1451 1452
1383 1382 1381 1380 1379 1378 1378 1377 1376 1375 1375 1375 1376 1377 1380 1382 1384 1385 1386 1387 1388 1389 1390 1390 1390 1390 1391 1392 1393 1394 1396 1398 1399 1401 1403 1405 1407 1409 1410 1412 1414 1417 1419 1422 1424 1426 1428 1430 1432 1433 1434 1436 1437 1439 1440 1442 1443 1444 1446 1447 1448 1449 1449 1449 1450 1450 1450 1450 1450
1380 1379 1378 1377 1377 1376 1375 1375 1374 1373 1372 1372 1373 1374 1377 1380 1382 1383 1384 1385 1386 1387 1388 1389 1389 1389 1389 1391 1392 1393 1395 1397 1398 1400 1402 1404 1406 1408 1409 1411 1413 1415 1419 1421 1423 1425 1427 1429 1430 1432 1433 1435 1436 1438 1439 1441 1442 1443 1444 1445 1446 1447 1448 1448 1448 1449 1449 1449 1449
1378 1377 1376 1375 1374 1373 1373 1373 1372 1371 1370 1370 1371 1372 1374 1377 1379 1381 1383 1383 1384 1385 1386 1387 1387 1388 1389 1389 1391 1392 1394 1395 1397 1399 1400 1403 1405 1407 1408 1409 1411 1414 1417 1420 1422 1424 1426 1428 1429 1431 1432 1434 1435 1437 1439 1440 1441 1442 1443 1444 1445 1446 1446 1447 1447 1447 1448 1448 1448
1375 1374 1373 1372 1371 1370 1370 1370 1369 1369 1368 1368 1369 1370 1372 1375 1378 1379 1381 1382 1382 1384 1385 1385 1386 1386 1387 1388 1389 1391 1392 1394 1395 1397 1399 1402 1404 1406 1407 1409 1410 1413 1416 1419 1420 1423 1424 1426 1428 1429 1431 1433 1434 1436 1437 1439 1440 1441 1442 1443 1444 1444 1445 1446 1446 1446 1446 1447 1447
Wind_Speed
37 36 36 36 35 35 34 34 34 33 32 32 32 34 36 36 37 38 39 40 41 42 43 45 46 46 47 47 47 47 47 48 48 47 47 46 44 43 41 39 37 35 34 33 31 30 29 28 26 25 25 24 23 22 21 20 20 19 18 17 16 15 15 14 13 13 12 11 11
36 36 36 35 34 34 33 33 34 33 33 32 32 33 35 36 36 37 38 39 40 41 42 43 44 45 46 46 46 46 46 47 47 47 47 46 44 43 41 39 38 36 35 33 32 31 29 28 27 26 25 25 24 23 22 21 20 19 18 18 17 16 15 15 14 13 12 11 11
36 35 35 34 33 33 32 32 33 33 34 33 32 33 34 35 35 36 37 38 39 40 41 42 44 45 45 46 45 45 45 45 46 46 46 45 44 43 41 40 38 37 35 34 33 31 30 28 27 26 26 25 24 24 23 22 21 20 19 18 17 16 16 15 14 13 12 12 11
35 34 34 34 33 33 32 31 31 32 33 33 33 33 33 34 34 34 35 36 38 39 41 42 43 45 45 45 45 45 44 44 45 45 45 45 44 43 42 40 39 37 36 35 33 31 30 28 27 27 26 26 25 24 23 22 21 20 19 18 17 17 16 15 15 14 13 12 12
33 33 33 33 33 33 32 31 30 30 31 32 32 33 33 34 34 34 34 35 37 38 40 41 43 44 45 45 44 44 44 44 44 44 44 44 44 43 42 41 39 38 36 35 33 32 30 28 27 27 26 26 25 24 23 22 21 20 19 18 18 17 17 16 15 14 14 13 12
31 32 33 33 33 32 32 31 30 29 29 30 31 32 32 33 33 33 33 35 36 38 39 40 42 43 44 44 44 44 44 43 43 44 44 44 43 43 42 41 40 38 37 35 34 32 30 29 28 27 27 26 25 24 23 22 21 20 19 19 19 18 17 16 16 15 14 14 13
29 30 31 31 31 32 32 32 31 29 29 29 29 31 31 31 32 32 33 34 35 36 37 39 41 43 44 44 44 44 44 43 43 43 43 43 43 43 42 41 40 39 37 36 34 32 30 29 28 28 27 27 26 24 23 22 22 21 20 19 19 18 18 17 16 16 15 14 13
28 29 30 30 30 30 31 32 31 30 29 29 29 30 31 31 32 32 31 31 33 34 35 38 41 42 43 44 44 44 44 44 43 43 43 43 43 43 42 42 40 39 38 36 34 32 31 29 29 28 28 27 26 25 24 23 22 22 21 20 19 19 18 18 17 16 15 14 14
28 29 29 29 29 29 30 31 31 31 30 29 29 29 30 30 31 31 31 30 31 32 34 36 40 42 43 43 44 44 45 44 43 43 42 43 44 44 43 42 41 39 38 36 34 32 31 30 29 29 28 28 27 26 25 24 23 22 21 20 19 19 18 18 17 16 15 15 14
28 29 29 29 29 29 29 30 31 31 31 30 30 29 29 29 30 31 31 30 30 31 33 35 38 40 42 43 44 44 45 44 43 42 42 43 44 44 44 43 42 40 38 36 34 33 31 30 30 29 29 28 27 26 25 24 23 23 22 21 20 19 19 18 17 16 16 15 15
27 28 29 29 29 29 29 29 30 30 30 30 30 29 29 29 30 30 31 31 30 30 32 34 37 39 41 42 43 44 44 44 43 42 42 43 44 44 44 43 42 40 38 36 34 33 32 31 30 29 29 28 27 26 26 25 24 23 22 21 20 19 19 19 18 17 16 15 15
26 27 27 28 28 29 29 29 29 29 30 30 30 29 29 28 29 30 30 30 31 31 31 33 36 38 40 41 42 43 44 43 43 42 42 42 43 44 44 43 42 40 38 36 34 33 32 31 30 29 29 28 27 27 26 25 24 23 22 21 21 20 20 19 18 17 16 15 15
24 25 26 26 27 27 28 28 29 29 29 29 29 29 29 28 28 29 30 30 31 30 31 32 35 37 39 40 42 43 43 43 43 42 42 42 43 43 44 43 42 40 38 36 34 33 32 31 30 29 29 28 27 27 26 25 24 23 22 21 21 20 20 19 18 17 16 15 15
21 23 24 25 25 26 27 27 28 28 29 29 29 29 29 28 28 29 30 30 31 30 30 31 34 36 38 39 41 42 43 43 43 42 42 42 43 43 43 43 41 40 38 36 34 33 32 31 30 29 28 28 27 27 26 25 24 23 22 21 21 20 20 19 18 17 17 16 15
19 20 22 23 24 25 25 26 26 27 27 28 28 28 28 28 28 28 29 30 31 30 29 31 33 35 37 38 40 41 42 43 42 42 42 42 42 43 43 42 41 40 38 36 34 33 32 31 30 28 28 27 27 26 26 25 23 22 21 21 20 20 20 19 18 17 17 16 15
18 18 19 20 21 23 24 24 25 25 25 26 26 27 27 27 27 28 29 30 31 30 29 31 32 34 36 37 39 40 41 42 42 42 42 42 42 43 43 42 41 39 38 36 34 33 32 30 29 28 27 27 26 26 25 24 23 22 21 20 20 19 19 19 18 17 16 16 15
17 18 18 19 20 21 23 24 24 24 24 24 25 26 26 27 27 28 30 31 31 31 31 31 32 33 35 36 38 40 41 41 42 42 42 42 43 43 42 42 41 39 37 36 34 33 32 30 29 28 27 26 26 25 25 24 23 22 21 20 20 19 19 18 18 17 16 15 15
18 18 18 19 19 20 22 23 24 24 23 23 24 24 25 26 27 28 30 31 32 31 31 32 33 33 34 36 38 39 40 41 41 42 42 42 42 42 42 41 40 39 37 35 34 33 31 30 29 28 27 26 25 25 24 23 22 22 21 20 20 20 19 18 17 17 16 15 15
18 19 19 19 20 20 21 22 23 23 23 23 23 23 24 25 26 27 29 31 32 32 32 32 33 34 34 36 37 39 40 41 41 41 41 42 42 42 42 41 40 38 37 35 34 32 31 29 28 27 27 26 25 25 24 23 23 22 21 21 20 20 19 18 17 17 16 15 15
19 19 19 20 20 20 21 21 22 23 23 22 22 22 23 24 25 26 27 29 31 32 32 32 33 34 34 36 37 38 40 40 40 40 41 41 42 42 41 40 39 38 37 35 33 32 30 29 28 27 26 26 25 25 24 24 23 22 22 21 21 20 19 18 17 16 16 15 15
20 19 19 20 20 20 20 21 22 22 22 22 22 22 23 23 24 25 26 27 30 32 32 33 33 34 35 36 37 38 39 40 40 40 40 41 41 41 40 40 39 38 36 35 33 32 30 29 28 27 26 25 25 25 24 24 23 23 22 22 21 20 19 18 17 16 16 16 15
21 20 19 20 20 21 21 21 21 22 22 22 22 23 23 23 24 25 25 26 29 31 32 33 33 34 35 36 38 39 39 39 40 40 40 41 40 40 40 39 38 37 36 35 33 32 30 29 28 27 26 25 25 24 24 24 23 23 22 22 21 20 18 17 17 16 16 16 16
22 21 20 20 20 21 21 21 21 22 22 23 23 23 23 23 24 24 25 26 28 30 32 32 32 33 34 36 38 39 39 39 39 39 39 40 40 39 39 39 38 37 36 35 33 32 30 29 28 27 26 25 25 24 24 23 23 23 22 22 20 19 18 17 17 16 16 16 16
23 22 21 20 20 20 21 21 21 22 22 22 23 23 23 23 23 24 25 26 27 29 30 30 30 31 33 35 37 39 39 39 39 39 39 39 39 39 39 39 39 37 36 35 33 32 30 29 28 27 26 25 24 24 24 24 23 23 22 21 20 19 18 17 17 16 16 16 16
24 23 22 21 20 20 20 21 21 22 22 23 23 23 23 23 23 24 25 26 27 27 28 28 28 29 31 34 36 38 39 39 39 38 39 39 39 39 39 39 39 37 36 35 33 32 30 29 27 26 25 25 24 24 24 24 23 23 22 21 20 19 18 17 17 16 16 16 16
25 24 23 22 21 20 21 21 22 22 23 23 23 23 23 23 23 24 25 26 26 26 27 27 27 28 29 32 35 37 38 39 39 38 38 39 39 39 39 39 39 38 36 35 33 31 29 28 26 25 25 24 24 24 24 24 23 23 22 21 20 19 18 18 17 17 16 16 16
26 25 24 22 21 21 21 21 22 22 23 23 23 23 23 23 23 24 25 26 26 26 26 27 27 27 28 30 33 36 38 39 39 39 38 39 39 39 40 39 39 38 36 35 33 31 29 27 26 25 24 24 24 24 24 23 23 22 21 20 19 19 18 17 17 16 16 16 17
28 27 25 23 22 22 21 21 22 22 23 24 24 24 23 23 23 24 25 26 26 26 26 26 27 27 27 29 32 35 37 38 39 39 39 39 39 39 39 39 38 37 36 34 32 30 28 26 25 24 24 23 23 23 23 23 22 21 21 20 19 18 18 17 17 16 16 16 16
29 28 26 24 23 22 22 21 22 22 23 24 24 24 23 23 23 24 25 26 26 26 26 27 27 27 27 28 30 33 35 37 38 39 39 39 39 39 39 39 38 37 35 33 31 29 27 26 25 24 23 23 22 22 22 22 21 21 20 19 19 18 17 17 16 16 16 15 15
29 29 28 25 23 22 22 22 22 22 23 23 23 23 23 23 24 25 25 26 26 27 27 27 27 27 28 28 29 31 34 36 38 39 39 40 40 40 40 39 38 36 35 33 30 28 26 26 25 24 23 22 22 22 22 21 21 20 20 19 18 18 17 16 16 15 14 13 13
28 29 29 27 24 23 22 22 22 22 22 23 23 23 23 23 24 25 26 26 27 27 27 27 27 28 28 28 29 31 33 35 37 38 39 40 41 40 40 39 37 36 34 32 29 27 26 25 24 24 23 22 22 22 22 21 20 20 19 19 18 17 16 15 14 14 13 13 12
27 29 30 29 27 24 22 22 22 22 23 23 23 24 24 24 24 25 26 26 27 27 27 27 28 28 28 28 28 30 32 33 36 38 39 40 40 40 39 38 37 35 33 31 28 27 26 25 24 23 22 22 22 22 21 21 20 19 19 18 17 16 15 14 14 13 13 12 12
26 28 30 30 29 25 23 22 22 23 23 23 24 24 24 24 25 25 26 26 27 27 27 28 28 28 28 28 28 29 31 33 35 37 39 40 40 40 39 38 36 35 33 30 27 26 25 24 24 23 22 22 21 21 21 20 20 19 18 17 16 15 14 14 14 14 13 13 13
26 27 28 30 30 27 24 22 23 24 25 25 25 25 25 25 25 25 26 26 27 27 28 28 29 29 29 28 29 29 31 32 34 36 38 39 39 39 38 37 36 35 32 29 27 26 25 24 23 22 22 21 21 21 20 20 19 18 17 16 15 15 14 14 14 14 14 14 14
27 27 27 29 30 28 25 23 23 25 26 27 26 26 26 26 26 26 27 27 27 27 27 28 28 28 28 28 28 29 30 31 33 36 37 39 39 39 38 37 36 34 31 28 26 25 25 24 23 22 22 21 21 20 19 19 18 17 16 15 14 14 14 14 14 14 15 15 16
28 27 27 28 28 28 26 24 24 26 28 29 28 27 27 27 27 27 27 27 27 27 27 28 28 28 28 28 29 29 30 31 33 35 37 39 39 39 38 37 36 33 30 28 27 26 25 24 23 22 21 21 20 20 19 18 17 16 15 14 14 13 13 13 14 15 15 16 17
28 28 28 27 27 27 26 25 26 27 29 30 29 28 27 27 28 28 28 28 28 28 28 28 28 29 29 29 29 30 30 31 32 35 37 38 39 39 38 37 35 33 30 28 27 26 25 24 23 22 21 21 20 20 19 18 17 16 15 14 14 13 13 13 14 15 16 17 18
30 29 28 28 27 27 26 26 26 28 30 31 30 29 27 27 28 28 28 28 28 28 28 28 28 29 29 29 29 30 30 31 32 34 36 38 39 39 38 37 35 33 30 28 27 26 25 23 22 22 21 21 20 19 19 18 17 17 16 15 14 14 13 14 14 15 16 17 17
30 30 29 28 28 28 27 26 27 29 31 31 30 29 28 27 27 28 29 29 30 29 28 28 28 28 28 29 29 29 30 31 32 34 36 38 39 39 38 36 35 33 30 28 27 26 24 23 22 22 21 21 20 19 19 18 17 17 16 15 14 14 13 14 14 14 15 16 16
31 30 30 29 29 29 28 27 28 30 32 32 31 29 28 28 27 28 28 30 30 30 29 28 28 28 28 28 29 29 30 31 33 34 36 37 38 38 37 36 35 32 30 28 27 25 24 23 22 21 21 21 20 20 19 18 17 16 16 15 14 13 13 13 13 13 14 14 14
31 31 30 30 30 29 29 28 29 32 34 34 33 31 29 28 27 27 28 29 30 30 28 27 27 27 27 28 28 29 31 32 33 34 35 37 37 37 37 36 34 32 30 28 27 25 24 23 22 21 21 21 21 20 19 17 16 15 15 14 13 13 12 12 12 12 13 13 13
Wind_Direction
245 244 242 242 241 239 237 235 233 231 230 230 232 233 232 231 229 229 229 228 228 229 229 230 232 232 232 231 230 228 228 227 227 227 227 227 226 226 227 227 227 227 228 228 229 230 231 232 233 234 236 237 238 238 238 238 237 237 237 238 239 240 241 243 245 247 250 254 259
245 244 243 241 241 240 238 236 234 232 230 229 231 232 233 231 230 229 229 228 228 229 229 230 232 232 232 232 231 230 228 227 227 227 226 226 226 226 226 226 227 227 227 228 229 230 230 231 232 234 235 237 237 237 237 238 238 237 236 237 237 238 239 241 244 247 248 250 254
245 245 243 241 240 239 238 237 235 233 231 229 230 231 232 232 230 229 229 229 229 229 229 230 231 232 232 232 232 231 229 228 227 226 226 225 225 224 225 225 226 227 227 227 229 230 230 231 232 233 235 237 237 237 237 238 238 237 235 234 235 236 237 238 242 244 245 246 249
245 245 243 241 240 239 238 237 236 234 232 230 230 230 232 232 230 229 228 228 229 229 229 230 231 232 233 232 232 231 230 229 227 226 225 225 224 224 224 225 225 226 226 227 228 229 230 230 231 232 235 236 237 236 236 237 238 237 234 232 233 234 236 237 239 241 243 245 247
245 245 244 243 242 241 239 238 236 235 233 231 230 230 231 231 230 229 227 227 228 228 229 230 231 232 233 233 233 232 231 229 227 226 225 224 223 223 223 224 224 225 226 226 227 228 229 229 230 232 234 236 236 236 235 237 238 237 234 232 232 233 235 236 237 239 242 246 248
245 245 246 245 244 242 240 239 237 235 233 232 230 229 230 230 229 228 227 227 228 229 229 230 231 232 232 233 233 232 231 229 227 225 224 223 223 222 222 222 224 224 225 226 227 227 227 228 229 231 233 234 235 235 235 235 237 237 235 233 232 232 233 234 236 239 242 245 248
244 245 246 245 245 243 241 240 237 235 233 232 230 229 229 229 229 228 227 227 228 228 228 229 230 231 232 232 232 231 230 228 227 225 224 223 222 221 221 222 223 224 225 225 226 226 227 227 228 230 231 233 234 234 233 233 235 236 236 234 233 232 233 233 235 238 241 245 247
245 245 246 246 245 243 242 241 238 235 233 232 231 230 229 229 229 228 227 227 227 227 227 228 229 231 232 232 231 231 230 229 227 225 224 222 221 221 221 222 222 223 224 225 226 226 226 227 228 229 230 232 233 233 233 232 233 235 235 234 233 233 234 235 237 240 243 246 248
247 247 247 247 246 244 242 241 239 236 234 232 232 231 230 229 229 228 226 225 225 226 226 227 229 231 232 232 231 231 231 230 228 226 224 223 221 221 221 221 222 223 224 225 225 226 226 227 228 229 230 232 233 234 234 233 233 233 234 234 233 233 236 239 241 243 245 247 249
250 249 249 249 247 246 244 242 240 238 236 234 233 232 231 229 229 228 226 224 225 225 225 227 229 230 230 231 231 231 231 231 230 228 226 224 222 222 222 222 223 223 224 225 225 226 226 227 228 229 230 232 233 234 235 234 233 232 233 234 233 233 236 241 244 246 247 249 251
251 251 251 250 250 248 246 243 241 239 237 235 234 233 231 230 229 228 226 225 223 223 224 226 228 229 229 229 229 230 230 231 230 229 227 226 224 223 223 223 224 224 225 225 225 226 226 228 229 230 231 232 232 233 234 235 234 233 233 234 233 233 236 240 245 248 250 252 255
251 252 253 252 252 250 248 244 242 240 238 236 234 233 231 230 229 228 226 224 223 222 223 226 228 229 229 229 228 228 229 230 230 229 228 227 225 224 224 224 224 225 226 226 226 226 227 228 229 229 230 232 232 232 234 235 235 234 233 233 234 234 235 239 244 248 252 255 258
251 251 252 253 252 251 249 247 244 242 240 238 236 233 232 230 229 227 226 224 222 221 222 224 227 229 229 228 228 227 228 228 229 229 228 227 225 224 224 224 224 225 225 226 226 227 228 229 230 230 230 231 231 233 234 236 236 235 234 233 234 234 236 238 242 246 251 254 257
251 249 250 251 252 251 250 248 246 244 242 239 237 235 232 230 229 227 226 224 222 220 220 223 225 227 228 228 227 227 227 227 228 228 228 227 225 224 224 224 224 224 224 225 225 227 228 229 230 231 231 231 231 233 235 237 237 236 235 234 234 236 237 239 242 245 248 251 255
255 248 247 248 249 250 250 249 247 245 243 240 238 236 233 230 229 227 225 224 222 220 219 221 223 225 227 227 227 227 227 227 227 227 227 226 225 224 224 224 224 224 224 224 225 226 228 229 230 231 232 231 231 233 235 237 238 237 236 236 236 237 239 241 243 245 248 250 254
261 251 246 245 246 247 248 248 247 246 243 241 239 236 233 230 229 227 225 224 221 219 217 219 222 223 224 225 226 226 226 226 226 226 226 225 224 224 224 224 223 223 223 223 224 225 227 228 230 231 232 232 232 232 234 236 237 237 237 237 237 238 239 241 243 246 249 252 255
267 257 250 246 245 245 246 247 248 246 244 242 239 237 234 231 229 227 225 223 221 218 217 218 220 222 222 223 224 224 224 225 225 225 224 223 223 223 223 223 223 223 223 223 223 225 226 227 228 230 231 231 231 232 233 235 236 236 236 237 237 238 239 242 244 247 250 253 256
274 264 256 251 248 246 245 245 246 247 245 243 240 237 234 231 229 228 226 224 221 218 217 217 219 221 221 221 222 222 223 223 223 223 223 223 223 223 223 223 222 222 222 222 223 224 226 227 228 228 229 230 230 231 232 233 234 235 236 236 237 238 240 242 244 247 251 254 257
282 270 262 256 253 250 247 246 245 246 245 244 241 237 234 232 229 228 226 225 222 219 217 217 219 220 221 221 221 222 222 222 222 223 222 222 223 223 223 222 222 221 221 222 223 224 225 226 227 228 228 228 228 228 229 231 232 234 235 236 236 238 239 241 244 248 251 254 257
291 278 267 261 257 254 251 248 246 246 245 243 241 238 235 232 229 227 226 224 223 220 218 217 219 219 220 221 221 222 222 222 222 222 222 222 222 222 222 221 221 220 221 221 222 223 224 226 226 227 227 227 226 226 227 229 231 232 233 234 236 237 239 242 244 248 251 254 257
300 288 275 266 260 257 254 251 248 246 244 243 241 238 236 233 230 228 226 224 223 221 219 218 219 219 220 220 221 222 223 223 222 221 221 221 222 222 221 220 219 220 220 221 221 222 223 224 225 226 226 226 226 226 227 228 230 231 233 234 235 237 239 242 245 248 251 253 256
308 298 285 273 265 260 256 253 251 248 246 243 241 239 236 234 231 229 226 224 223 222 220 219 219 219 220 220 221 223 223 223 223 222 221 221 222 221 220 219 218 219 219 220 220 221 222 223 224 224 224 224 225 226 227 228 229 231 233 234 235 237 239 241 244 248 251 254 256
311 305 295 282 271 263 258 254 251 249 247 244 241 239 237 235 232 229 226 224 223 223 221 220 218 219 220 221 222 223 223 223 223 222 221 222 221 220 219 218 217 218 218 219 220 220 221 221 222 222 223 223 224 225 226 228 229 230 232 234 235 237 239 241 244 247 251 254 257
311 308 301 291 279 268 261 256 251 248 245 243 241 239 237 236 233 230 226 223 222 222 221 219 217 217 219 220 222 223 223 223 222 221 221 221 221 219 218 216 216 217 217 219 219 220 220 220 220 220 220 221 222 224 225 227 228 229 231 232 234 237 239 242 244 247 251 254 258
310 308 305 298 286 275 265 257 252 247 244 242 240 239 238 236 234 230 226 223 221 220 219 217 215 214 216 218 220 222 223 223 222 221 220 220 220 218 216 215 215 215 216 218 219 220 220 220 220 220 220 220 221 222 224 226 227 228 230 231 234 236 239 242 245 248 251 254 259
307 306 305 301 293 281 269 260 252 247 243 241 240 239 237 236 234 230 226 223 221 219 217 215 213 212 213 215 218 220 221 222 223 222 220 219 218 216 215 214 213 214 215 217 218 219 219 219 220 220 220 220 220 221 223 224 226 228 229 231 233 236 239 242 246 249 253 258 262
304 303 302 301 296 287 275 263 254 247 243 240 239 238 237 235 233 230 226 223 220 218 216 214 212 210 211 213 215 217 218 220 221 221 220 220 218 215 214 213 212 213 214 216 217 217 218 218 218 219 220 221 221 221 222 224 225 227 228 230 232 234 238 241 245 250 255 261 267
304 302 299 298 296 290 280 268 257 249 243 240 238 237 237 235 233 230 227 223 220 218 216 213 211 209 209 210 212 215 216 217 218 218 219 219 218 216 213 212 212 213 215 216 216 216 216 216 217 218 219 220 221 222 223 224 225 226 227 229 231 234 237 240 244 249 253 260 267
304 303 299 296 293 289 282 271 260 251 244 240 238 237 237 235 232 230 227 224 220 217 215 212 210 208 207 208 209 212 214 215 216 216 216 216 216 215 213 212 212 213 215 216 216 215 214 214 215 216 217 218 219 220 221 223 224 225 226 228 230 233 236 240 244 248 253 258 263
302 303 301 297 293 288 282 273 263 253 246 241 238 236 235 234 231 229 226 224 220 217 214 211 208 206 206 206 207 208 210 212 213 213 213 213 213 212 212 211 212 213 215 215 215 214 213 213 214 215 215 216 217 218 219 221 222 224 226 228 230 233 236 241 245 249 253 255 258
299 300 301 300 294 287 280 273 263 255 247 242 238 236 234 232 230 228 225 223 221 218 214 210 208 206 205 205 205 205 206 208 210 211 211 211 210 210 210 210 211 213 214 214 213 212 211 211 212 213 213 214 214 216 218 219 221 223 225 227 230 233 237 240 243 247 250 251 251
296 297 298 299 296 289 280 271 262 254 247 242 239 237 236 232 230 228 225 222 221 218 214 210 207 205 203 203 203 203 204 205 207 209 209 209 209 208 208 208 210 212 213 213 211 210 209 210 210 211 211 212 213 215 217 218 220 222 224 227 230 233 236 239 241 243 245 245 245
294 293 294 296 295 290 280 269 259 251 245 241 239 239 237 233 230 227 224 221 220 217 214 210 207 204 202 200 200 200 202 203 206 207 208 208 207 206 206 206 209 211 212 211 209 208 207 207 207 208 209 210 212 213 215 218 220 222 224 227 230 233 235 237 240 241 242 241 240
293 291 291 292 293 290 281 268 256 247 242 239 238 239 238 234 229 225 222 220 219 217 214 211 207 204 201 199 198 198 199 201 204 206 207 206 206 205 204 205 208 210 210 209 207 205 204 204 204 206 207 209 210 212 214 217 220 222 224 226 229 231 233 236 238 240 241 240 240
292 290 288 288 288 287 281 268 255 246 240 236 237 238 237 234 230 225 221 220 218 217 214 211 208 204 202 199 198 197 196 197 201 204 205 205 204 203 203 204 207 209 208 206 204 202 202 202 202 203 205 207 209 210 212 215 219 222 224 225 227 231 234 237 239 241 243 244 244
292 290 287 285 284 283 279 269 256 245 239 235 235 235 236 234 230 226 222 219 217 215 213 210 207 203 200 198 196 195 194 195 198 202 204 204 203 202 202 203 206 207 206 203 201 200 200 200 200 202 204 205 207 209 210 213 215 218 220 222 225 229 234 238 242 244 247 250 252
292 290 287 284 281 279 275 268 257 246 240 236 233 232 233 233 230 226 221 218 216 214 212 209 206 202 199 196 195 193 193 194 197 200 202 203 202 201 201 202 205 206 204 200 199 198 198 198 199 200 202 204 206 207 208 208 209 211 214 217 221 226 231 235 241 246 250 254 257
292 289 287 283 280 276 272 265 256 247 241 236 232 229 229 230 229 225 220 216 213 212 210 208 205 202 198 196 194 192 191 192 196 199 200 201 201 201 200 201 204 204 202 198 197 197 197 197 198 200 201 203 205 205 205 205 206 208 211 214 219 223 227 232 238 243 249 255 259
291 288 285 282 279 275 270 263 253 246 240 236 231 227 225 226 227 224 220 216 213 210 208 206 204 201 198 195 193 191 190 191 195 198 200 200 201 201 200 201 203 203 200 197 196 196 196 197 198 200 201 203 203 202 202 203 206 209 212 215 218 222 226 230 235 241 247 253 259
290 287 284 281 278 275 270 261 251 244 239 235 231 226 222 222 224 223 219 215 212 210 208 205 203 200 197 194 192 190 189 189 193 197 199 200 200 200 200 201 202 202 199 196 195 195 196 197 198 199 200 201 200 199 199 201 205 210 214 217 220 223 226 229 235 241 246 251 257
289 286 283 280 277 274 269 260 249 243 239 237 232 226 221 219 220 220 218 214 211 209 206 204 201 198 195 193 191 189 188 188 191 194 197 199 199 198 199 200 202 201 198 195 195 195 196 197 198 199 199 199 197 197 198 200 204 208 213 217 220 222 225 228 235 242 247 250 253